Weather observations for the past three days for
Harry Reid International Airport
Imperial (Metric)
Date Time (pdt) Wind (mph) Vis. (mi.) Weather Sky Cond. Temperature (ºF) Relative Humidity Wind Chill (°F) Heat Index (°F) Pressure Precipitation (in)
Air Dwpt 6 hour altimeter (in) sea level (mb) 1 hr 3 hr 6 hr
Max. Min.
15 04:56 SW 3 10.00 Mostly Cloudy FEW160 BKN190 90 51.1 99 90 26% 87 29.99 1008.5
15 03:56 SW 3 10.00 Mostly Cloudy FEW130 FEW160 BKN190 91.9 50 24% 89 29.98 1008.1
15 02:56 S 7 10.00 Mostly Cloudy FEW130 SCT160 BKN180 91 52 26% 88 29.99 1008.6
15 01:56 S 7 10.00 Mostly Cloudy FEW130 FEW160 BKN180 93 48.9 22% 90 30 1008.8
15 00:56 NW 12 G 17 10.00 Mostly Cloudy FEW140 BKN160 96.1 48 19% 93 30 1008.9
14 23:56 Calm 10.00 Mostly Cloudy SCT140 BKN180 97 48.9 20% 94 30 1008.8
14 21:56 W 16 G 25 10.00 Mostly Cloudy FEW100 SCT140 BKN200 98.1 48.9 19% 95 29.99 1012.0
14 20:56 SW 10 10.00 Mostly Cloudy FEW100 BKN140 BKN200 100 45 15% 96 29.96 1011.3
14 19:56 SW 10 10.00 Mostly Cloudy FEW100 SCT120 BKN170 100 46 16% 96 29.95 1010.8
14 18:56 SW 10 G 24 10.00 Mostly Cloudy FEW100 FEW120 BKN170 104 46 14% 100 29.93 1010.4
14 17:56 S 8 10.00 Mostly Cloudy FEW100 SCT120 BKN170 106 44.1 12% 101 29.94 1010.5
14 16:56 S 10 10.00 Mostly Cloudy FEW100 SCT120 BKN170 106 43 106 97 12% 101 29.95 1011.0
14 15:56 S 10 G 18 10.00 Mostly Cloudy SCT100 BKN120 105.1 45 13% 101 29.97 1011.7
14 14:56 S 9 G 21 10.00 Mostly Cloudy SCT100 BKN120 102 50 17% 99 30 1012.9
14 13:56 W 8 10.00 Mostly Cloudy SCT100 BKN120 102 46 15% 98 30.02 1013.4
14 12:56 SW 16 G 26 10.00 Mostly Cloudy SCT100 BKN120 98.1 53.1 22% 96 30.04 1014.2
14 11:56 Calm 10.00 A Few Clouds FEW100 100.9 53.1 20% 99 30.04 1013.9
14 10:56 Vrbl 3 10.00 A Few Clouds FEW100 FEW140 99 54 100 82 22% 97 30.05 1014.4
14 09:56 Calm 10.00 Partly Cloudy FEW120 SCT160 97 55.9 25% 95 30.06 1014.7
14 08:56 S 5 10.00 Partly Cloudy FEW120 SCT160 91.9 57.9 32% 91 30.06 1015.1
14 07:56 Calm 10.00 Mostly Cloudy BKN120 90 59 35% 89 30.07 1015.3
14 06:56 Calm 10.00 Partly Cloudy SCT140 86 59 40% 85 30.06 1014.9
14 05:56 SW 7 10.00 A Few Clouds FEW080 FEW140 82 61 49% 83 30.03 1013.9
14 04:56 S 5 10.00 A Few Clouds FEW140 82.9 59 88 82 44% 83 30.02 1013.6
14 03:56 SW 6 10.00 Partly Cloudy FEW140 SCT220 82.9 61 48% 83 30.02 1013.4
14 02:56 SW 3 10.00 A Few Clouds FEW140 FEW220 84 63 49% 85 30.01 1013.0
14 01:56 SW 5 10.00 A Few Clouds FEW140 FEW220 84.9 61 45% 85 30.01 1013.1
14 00:56 Calm 10.00 Partly Cloudy FEW140 SCT220 84.9 62.1 46% 85 30.02 1013.5
13 23:56 S 8 10.00 Partly Cloudy FEW080 FEW140 SCT220 86 62.1 45% 87 30.01 1013.0
13 22:56 SW 5 10.00 Thunderstorm FEW048CB SCT070 BKN090 88 63 102 86 43% 89 30.02 1013.4 0.07
13 21:56 NW 17 G 28 10.00 Mostly Cloudy FEW048 SCT070 BKN090 90 57.9 34% 89 30.01 1012.8 0.01
13 20:56 N 15 8.00 Thunderstorm Light Rain FEW030 SCT070 BKN110 88 62.1 42% 88 29.99 1012.2 0.01
13 19:56 W 12 9.00 Thunderstorm Light Rain BKN030 BKN100 88 64.9 46% 90 29.98 1012.0 0.05
13 18:56 W 18 G 28 9.00 Thunderstorm BKN030 BKN100 91.9 59 33% 91 29.95 1011.0
13 17:56 Calm 10.00 Thunderstorm FEW030 BKN100 98.1 66.9 36% 103 29.9 1009.2 0.05
13 16:56 W 28 G 58 2.50 Rain Squalls and Windy FEW095 BKN120 95 57 109 95 28% 94 29.92 1009.8 0.01 0.01
13 15:56 NW 13 G 17 10.00 Mostly Cloudy SCT120 BKN150 104 48 15% 100 29.92 1009.7
13 13:56 SE 8 G 18 10.00 Mostly Cloudy SCT100 BKN130 104 48 15% 100 29.96 1010.9
13 12:56 SE 15 G 30 10.00 Mostly Cloudy SCT100 BKN130 102 52 19% 100 29.98 1011.8
13 11:56 SE 16 G 26 10.00 Mostly Cloudy FEW100 BKN140 105.1 51.1 16% 102 29.98 1011.5
13 10:56 E 9 G 17 10.00 Partly Cloudy SCT150 106 50 107.1 91.9 15% 103 29.97 1011.2
13 09:56 E 9 10.00 Partly Cloudy SCT150 104 51.1 17% 101 29.97 1011.2
13 08:56 Vrbl 5 10.00 Partly Cloudy SCT150 100 52 20% 97 29.97 1011.3
13 07:56 N 5 10.00 Partly Cloudy SCT150 96.1 52 23% 93 29.97 1011.2
13 06:56 Calm 10.00 A Few Clouds FEW150 95 48.9 21% 92 29.96 1011.1
13 05:56 W 3 10.00 Partly Cloudy SCT150 93 48 21% 90 29.96 1010.8
13 04:56 Calm 10.00 Partly Cloudy FEW150 SCT230 93.9 48 100.9 93 21% 90 29.95 1010.4
13 03:56 W 3 10.00 A Few Clouds FEW150 93.9 48.9 21% 91 29.93 1009.7
13 02:56 SW 3 10.00 Fair CLR 96.1 48 19% 93 29.9 1008.9
13 01:56 S 5 10.00 A Few Clouds FEW150 98.1 48 18% 95 29.9 1008.8
13 00:56 Calm 10.00 Partly Cloudy FEW150 SCT220 99 48 18% 95 29.89 1008.6
12 23:56 Vrbl 3 10.00 Mostly Cloudy SCT150 BKN220 100 46 16% 96 29.89 1008.5
12 22:56 SE 5 10.00 Mostly Cloudy FEW150 BKN220 100.9 45 115 100.9 15% 97 29.89 1008.4
12 21:56 SW 8 G 16 10.00 Partly Cloudy FEW150 SCT220 102.9 43 13% 98 29.89 1008.4
12 20:56 Vrbl 5 10.00 Partly Cloudy FEW150 SCT220 104 42.1 12% 99 29.86 1007.7
12 19:56 SE 15 G 30 4.00 Blowing Dust FEW150 SCT220 105.1 43 12% 100 29.84 1006.9
12 18:56 SE 13 G 41 4.00 Blowing Dust FEW150 SCT220 108 46 12% 104 29.82 1006.0
12 17:56 SE 13 G 20 10.00 Partly Cloudy FEW100 FEW150 SCT220 114.1 44.1 10% 109 29.79 1004.9
12 16:56 SW 7 10.00 Partly Cloudy FEW100 FEW150 SCT220 115 37 115 105.1 7% 108 29.79 1004.8
12 14:56 Vrbl 5 10.00 Partly Cloudy FEW100 FEW150 SCT220 114.1 42.1 9% 108 29.82 1006.1
12 13:56 Vrbl 3 10.00 Partly Cloudy FEW100 FEW150 SCT220 111.9 41 9% 106 29.85 1007.1
12 12:56 Calm 10.00 Partly Cloudy FEW100 FEW150 SCT220 111 42.1 10% 106 29.87 1007.6
12 11:56 Vrbl 5 10.00 Partly Cloudy FEW100 FEW150 SCT220 109 41 10% 104 29.89 1008.3
12 10:56 Vrbl 7 10.00 Partly Cloudy FEW150 SCT220 108 44.1 108 95 12% 103 29.9 1008.6
12 09:56 Calm 10.00 Partly Cloudy FEW150 SCT220 105.1 39.9 11% 100 29.89 1008.4
12 08:56 SW 6 10.00 Partly Cloudy FEW150 SCT200 102 39.9 12% 97 29.89 1008.4
12 07:56 E 9 10.00 Mostly Cloudy FEW150 BKN200 100.9 39.9 12% 96 29.88 1008.1
12 06:56 SE 6 10.00 Mostly Cloudy FEW150 BKN200 97 37.9 13% 92 29.87 1007.6
12 05:56 SE 6 10.00 Mostly Cloudy FEW160 BKN200 97 33.1 10% 92 29.85 1007.1
Date Time (pdt) Wind (mph) Vis. (mi.) Weather Sky Cond. Air Dwpt Max. Min. Relative Humidity Wind Chill (°F) Heat Index (°F) altimeter (in) sea level (mb) 1 hr 3 hr 6 hr
6 hour
Temperature (ºF) Pressure Precipitation (in)